When you browse on this site, cookies collect data to enhance your experience and personalize the content and advertising you see.
Visit our Privacy Policy to learn more. By continuing to use the site, you agree to this use of cookies and data.
  • In Hungary
  • List of Countries
  • For 7 days
  • Water Temperature
  • Weather Map
  • News
  • Weather Widgets
  • user-avatar
    Login

    Hourly Weather Sankt Johann im Pongau

    Today, 10 December, Tuesday

    Time Temperature Precipitation Wind Pressure Humidity
    00:00 +3°C° 1 mm 2 mps 700 mmHg 97%
    01:00 +3°C° 1 mm 2 mps 701 mmHg 97%
    02:00 +3°C° 1.2 mm 2 mps 701 mmHg 97%
    03:00 +2°C° 1.2 mm 2 mps 702 mmHg 96%
    04:00 +2°C° 1.2 mm 2 mps 702 mmHg 96%
    05:00 +2°C° 1.2 mm 2 mps 703 mmHg 96%
    06:00 +2°C° 1.2 mm 2 mps 704 mmHg 97%
    07:00 +2°C° 1.2 mm 2 mps 705 mmHg 97%
    08:00 +1°C° 1.1 mm 3 mps 706 mmHg 95%
    09:00 +1°C° 1.1 mm 3 mps 706 mmHg 94%
    10:00 0°C° 1.1 mm 4 mps 707 mmHg 93%
    11:00 0°C° 0.2 mm 3 mps 707 mmHg 90%
    12:00 0°C° 0.2 mm 3 mps 708 mmHg 87%
    13:00 0°C° 0.2 mm 3 mps 708 mmHg 84%
    14:00 -1°C° 0 mm 2 mps 708 mmHg 87%
    15:00 -3°C° 0 mm 2 mps 708 mmHg 90%
    16:00 -2°C° 0 mm 1 mps 708 mmHg 93%
    17:00 -3°C° 0 mm 1 mps 708 mmHg 93%
    18:00 -3°C° 0 mm 1 mps 708 mmHg 92%
    19:00 -4°C° 0 mm 1 mps 708 mmHg 91%
    20:00 -4°C° 0 mm 1 mps 708 mmHg 88%
    21:00 -7°C° 0 mm 2 mps 708 mmHg 84%
    22:00 -7°C° 0 mm 2 mps 707 mmHg 81%
    23:00 -7°C° 0 mm 2 mps 707 mmHg 73%

    Tomorrow, 11 December, Wednesday

    Time Temperature Precipitation Wind Pressure Humidity
    00:00 -6°C° 0 mm 2 mps 707 mmHg 65%
    01:00 -6°C° 0 mm 2 mps 706 mmHg 57%
    02:00 -5°C° 0 mm 2 mps 706 mmHg 53%
    03:00 -5°C° 0 mm 2 mps 705 mmHg 49%
    04:00 -4°C° 0 mm 2 mps 704 mmHg 44%
    05:00 -3°C° 0 mm 2 mps 704 mmHg 43%
    06:00 -3°C° 0 mm 2 mps 704 mmHg 41%
    07:00 0°C° 0 mm 1 mps 703 mmHg 39%
    08:00 +1°C° 0 mm 1 mps 703 mmHg 44%
    09:00 +3°C° 0 mm 1 mps 703 mmHg 49%
    10:00 +5°C° 0 mm 1 mps 703 mmHg 54%
    11:00 +6°C° 0 mm 1 mps 702 mmHg 61%
    12:00 +6°C° 0 mm 0 mps 701 mmHg 68%
    13:00 +7°C° 0 mm 0 mps 701 mmHg 74%
    14:00 +6°C° 0 mm 0 mps 700 mmHg 67%
    15:00 +4°C° 0 mm 0 mps 699 mmHg 60%
    16:00 +2°C° 0 mm 0 mps 698 mmHg 53%
    17:00 +2°C° 0 mm 0 mps 698 mmHg 51%
    18:00 +2°C° 0 mm 1 mps 698 mmHg 49%
    19:00 +2°C° 0 mm 1 mps 698 mmHg 47%
    20:00 +1°C° 0 mm 1 mps 698 mmHg 49%
    21:00 +1°C° 0 mm 1 mps 697 mmHg 50%
    22:00 0°C° 0 mm 1 mps 697 mmHg 52%
    23:00 0°C° 0 mm 1 mps 697 mmHg 55%

    Day after tomorrow, 12 December, Thursday

    Time Temperature Precipitation Wind Pressure Humidity
    00:00 0°C° 0 mm 1 mps 697 mmHg 58%
    01:00 -1°C° 0 mm 1 mps 696 mmHg 62%
    02:00 -1°C° 0.1 mm 1 mps 696 mmHg 68%
    03:00 -1°C° 0.1 mm 1 mps 695 mmHg 74%
    04:00 -1°C° 0.1 mm 1 mps 695 mmHg 80%
    05:00 0°C° 0.4 mm 1 mps 695 mmHg 85%
    06:00 0°C° 0.4 mm 1 mps 696 mmHg 90%
    07:00 0°C° 0.4 mm 1 mps 696 mmHg 96%
    08:00 +1°C° 0.4 mm 1 mps 696 mmHg 96%
    09:00 +1°C° 0.4 mm 1 mps 696 mmHg 95%
    10:00 +2°C° 0.4 mm 1 mps 696 mmHg 95%
    11:00 +2°C° 0.6 mm 1 mps 696 mmHg 94%
    12:00 +2°C° 0.6 mm 1 mps 696 mmHg 93%
    13:00 +3°C° 0.6 mm 1 mps 696 mmHg 93%
    14:00 +2°C° 0.3 mm 1 mps 696 mmHg 93%
    15:00 +2°C° 0.3 mm 1 mps 695 mmHg 94%
    16:00 +1°C° 0.3 mm 1 mps 695 mmHg 95%
    17:00 0°C° 0.1 mm 1 mps 695 mmHg 95%
    18:00 -1°C° 0.1 mm 1 mps 695 mmHg 95%
    19:00 -1°C° 0.1 mm 1 mps 695 mmHg 95%
    20:00 -2°C° 0 mm 1 mps 695 mmHg 93%
    21:00 -3°C° 0 mm 1 mps 695 mmHg 90%
    22:00 -5°C° 0 mm 2 mps 694 mmHg 88%
    23:00 -5°C° 0 mm 2 mps 693 mmHg 86%

    13 December, Friday

    Time Temperature Precipitation Wind Pressure Humidity
    00:00 -7°C° 0 mm 3 mps 692 mmHg 85%
    01:00 -7°C° 0 mm 3 mps 691 mmHg 83%
    02:00 -6°C° 0 mm 3 mps 690 mmHg 84%
    03:00 -7°C° 0 mm 4 mps 689 mmHg 84%
    04:00 -5°C° 0 mm 4 mps 688 mmHg 85%
    05:00 -5°C° 0 mm 4 mps 687 mmHg 84%
    06:00 -4°C° 0 mm 4 mps 686 mmHg 84%
    07:00 -3°C° 0 mm 4 mps 686 mmHg 84%
    08:00 -3°C° 0.1 mm 4 mps 685 mmHg 85%
    09:00 -2°C° 0.1 mm 3 mps 685 mmHg 85%
    10:00 -1°C° 0.1 mm 3 mps 685 mmHg 86%
    11:00 -1°C° 0.1 mm 2 mps 684 mmHg 85%
    12:00 +1°C° 0.1 mm 2 mps 684 mmHg 84%
    13:00 +3°C° 0.1 mm 1 mps 684 mmHg 84%
    14:00 +2°C° 0.8 mm 1 mps 684 mmHg 88%
    15:00 +2°C° 0.8 mm 1 mps 684 mmHg 92%
    16:00 +2°C° 0.8 mm 1 mps 684 mmHg 96%
    17:00 +1°C° 0.1 mm 1 mps 684 mmHg 94%
    18:00 0°C° 0.1 mm 1 mps 684 mmHg 92%
    19:00 -1°C° 0.1 mm 1 mps 685 mmHg 91%
    20:00 -1°C° 0 mm 1 mps 685 mmHg 88%
    21:00 -2°C° 0 mm 1 mps 686 mmHg 86%
    22:00 -2°C° 0 mm 1 mps 686 mmHg 83%
    23:00 -1°C° 0.1 mm 1 mps 686 mmHg 86%

    14 December, Saturday

    Time Temperature Precipitation Wind Pressure Humidity
    00:00 -1°C° 0.1 mm 1 mps 687 mmHg 88%
    01:00 -1°C° 0.1 mm 1 mps 687 mmHg 91%
    02:00 -1°C° 0 mm 1 mps 688 mmHg 88%
    03:00 -2°C° 0 mm 1 mps 688 mmHg 86%
    04:00 -2°C° 0 mm 1 mps 688 mmHg 84%
    05:00 -2°C° 0 mm 1 mps 688 mmHg 81%
    06:00 -4°C° 0 mm 2 mps 689 mmHg 79%
    07:00 -3°C° 0 mm 2 mps 689 mmHg 77%
    08:00 -2°C° 0.3 mm 2 mps 689 mmHg 80%
    09:00 -1°C° 0.3 mm 3 mps 690 mmHg 84%
    10:00 +1°C° 0.3 mm 3 mps 690 mmHg 87%
    11:00 +2°C° 0.1 mm 3 mps 690 mmHg 88%
    12:00 +4°C° 0.1 mm 2 mps 690 mmHg 88%
    13:00 +5°C° 0.1 mm 2 mps 690 mmHg 88%
    14:00 +4°C° 0.1 mm 2 mps 691 mmHg 90%
    15:00 +5°C° 0.1 mm 1 mps 692 mmHg 93%
    16:00 +4°C° 0.1 mm 1 mps 693 mmHg 95%
    17:00 +4°C° 0.2 mm 1 mps 693 mmHg 93%
    18:00 +4°C° 0.2 mm 1 mps 694 mmHg 92%
    19:00 +4°C° 0.2 mm 1 mps 694 mmHg 90%
    20:00 +4°C° 0.1 mm 1 mps 695 mmHg 89%
    21:00 +4°C° 0.1 mm 1 mps 696 mmHg 87%
    22:00 +4°C° 0.1 mm 1 mps 697 mmHg 86%
    23:00 +3°C° 0.1 mm 1 mps 697 mmHg 85%

    15 December, Sunday

    Time Temperature Precipitation Wind Pressure Humidity
    00:00 +3°C° 0.1 mm 1 mps 698 mmHg 85%
    01:00 +2°C° 0.1 mm 1 mps 698 mmHg 85%
    02:00 +2°C° 0 mm 1 mps 699 mmHg 84%
    03:00 +2°C° 0 mm 1 mps 699 mmHg 83%
    04:00 +2°C° 0 mm 1 mps 700 mmHg 82%
    05:00 +2°C° 0 mm 1 mps 700 mmHg 81%
    06:00 +2°C° 0 mm 1 mps 700 mmHg 79%
    07:00 +2°C° 0 mm 1 mps 701 mmHg 77%
    08:00 +3°C° 0 mm 1 mps 701 mmHg 79%
    09:00 +3°C° 0 mm 2 mps 701 mmHg 80%
    10:00 +5°C° 0 mm 2 mps 702 mmHg 81%
    11:00 +5°C° 0 mm 2 mps 702 mmHg 85%
    12:00 +6°C° 0 mm 2 mps 701 mmHg 88%
    13:00 +8°C° 0 mm 1 mps 701 mmHg 91%
    14:00 +6°C° 0 mm 2 mps 701 mmHg 87%
    15:00 +5°C° 0 mm 2 mps 701 mmHg 84%
    16:00 +4°C° 0 mm 2 mps 702 mmHg 80%
    17:00 +4°C° 0 mm 2 mps 702 mmHg 80%
    18:00 +3°C° 0 mm 2 mps 702 mmHg 80%
    19:00 +2°C° 0 mm 3 mps 702 mmHg 80%
    20:00 +2°C° 0 mm 3 mps 703 mmHg 81%
    21:00 +2°C° 0 mm 3 mps 703 mmHg 83%
    22:00 +2°C° 0 mm 3 mps 703 mmHg 85%
    23:00 +2°C° 0 mm 3 mps 703 mmHg 85%
    Show more